GFSSW_prec_radar_213.txt.gz
Reflectivity
-20 -20 -20 -1 -10 11 14 -10 -13 -20 -20 -15 -3 14 11 -20 -2 -20 -6 -20 -20 -20 -20 -20 -20 9 28 -5 5 0 -19 -20 -20 -19 -4 -20 -20 -20 -20 -20 -20 -20 -20 -20 -20
5 8 0 -4 -19 4 1 -6 7 12 -20 -20 -11 -9 -2 10 -20 -20 -2 -6 -20 -20 -20 -20 -20 21 16 5 -7 -0 -2 -20 -16 -2 0 -10 -20 -20 -20 -20 -20 -20 -20 -20 -20
-20 -20 -17 -20 -19 -4 8 5 -7 -20 -4 6 -20 -19 -12 12 -20 -20 -20 -16 -20 -20 -20 -20 -7 18 13 8 -18 -20 -5 3 12 -9 -12 -19 -20 -20 -20 -20 -20 -20 -20 -20 -20
-20 -7 -1 11 12 10 -17 -8 -6 -17 -20 -13 14 -20 -5 7 -19 -20 -20 -20 -17 -10 -20 -20 8 18 4 12 -16 -20 -20 -0 18 -2 -20 -20 -20 -20 -20 -20 -20 -20 -20 -20 -20
15 -2 2 12 6 -0 7 -2 -14 1 -0 -17 2 13 -4 14 -8 -20 -20 -20 -20 -17 -8 -20 -20 12 2 -10 6 5 -20 -4 4 -7 -20 -20 -20 -20 -20 -20 -20 -20 -20 -20 -20
10 6 7 -5 -9 2 -10 1 7 6 -6 -20 -20 8 5 5 -20 -20 -20 -20 -20 -20 -9 -16 -2 -20 12 -14 -16 -20 -20 -20 -18 -20 -20 -20 -20 -20 -20 -20 -20 -20 -20 -20 -20
-14 5 11 7 0 -0 2 -3 -20 -8 -15 -20 -20 -11 10 -20 -20 -20 -20 -20 -20 -20 -20 -19 3 19 -17 14 -10 -20 12 -20 -20 -20 -20 -20 -20 -20 -20 -20 -20 -20 -20 -20 -20
11 7 2 -20 -13 -7 -9 -6 -18 -17 -20 -20 -20 7 7 -20 -20 -20 -20 -20 -20 -13 -20 27 28 27 -7 -20 -14 -4 -4 11 -20 -20 -20 -20 -20 -20 -20 -20 -20 -20 -20 -20 -20
-6 2 -20 6 -3 -6 1 1 -20 -20 -20 -19 14 3 -11 -20 -11 -20 -20 -20 -20 5 2 27 24 18 3 16 3 -16 -19 -9 -20 -20 -20 -20 -20 -20 -20 -20 -20 -20 -20 -20 -20
-14 -20 -20 2 3 5 3 3 -20 -20 -20 -20 -20 7 1 -20 -20 -20 -20 -20 -20 2 25 7 23 14 21 6 -5 -20 -20 -14 -20 -20 -20 -20 -20 -20 -20 -20 -20 -20 -20 -20 -20
-17 -6 -9 2 0 -20 -3 -20 -20 -18 -20 -18 -5 31 12 -20 -20 -16 -20 -20 0 12 16 22 23 -6 -14 -2 9 -20 -20 -20 -20 -20 -20 -20 -20 -20 -20 -20 -20 -20 -20 -20 -20
2 -3 2 -8 -20 -20 -20 -20 10 18 25 -20 -20 -20 -20 -10 -19 -20 -17 20 22 -12 -12 22 19 -11 -14 12 -9 -20 -19 -20 -20 -20 -20 -20 -20 -20 -20 -20 -20 -20 -20 -20 -20
-8 -3 -8 -20 -20 -20 -20 12 19 10 -7 -20 -20 -20 -20 6 3 -15 30 35 2 7 0 4 -16 -5 -4 31 17 12 -20 -20 -20 -20 -20 -20 -20 -20 -20 -20 -20 -20 -20 -20 -20
-16 3 7 8 -20 -20 -20 -20 -20 -20 -15 -20 -20 -20 -20 -20 -20 -18 16 26 29 -9 -16 12 21 7 -19 14 -20 -20 -20 -20 -19 -20 -20 -20 -20 -20 -20 -20 -20 -20 -20 -20 -20
-17 -20 -20 -18 -20 -20 -20 -20 -8 -19 -20 -20 1 -20 8 -20 -1 -15 13 31 19 36 22 -20 -14 11 -1 -20 -20 -20 -3 -20 -3 2 -20 -20 -20 -20 -20 -20 -20 -20 -20 -20 -20
-19 -20 -20 -20 -20 -20 -20 -20 -20 -20 -20 -20 -1 7 8 33 -20 20 13 20 42 25 21 -5 -20 14 -20 -20 -20 -19 6 -4 -13 27 -2 -20 -20 -20 -20 -20 -20 -20 -20 -20 -20
-20 -20 -20 12 -6 -11 -20 -20 -20 -20 -20 -20 -20 -20 -20 22 -4 -20 16 12 29 28 23 -2 24 -18 5 14 17 20 17 15 12 -1 -17 -20 -20 -20 -20 -20 -20 -20 -20 -20 -20
-20 -20 -20 -4 -20 -20 -20 -20 -20 -20 -19 -20 -20 -20 -20 -17 6 -20 13 21 32 31 11 -7 18 -20 -20 -18 -18 -20 12 15 11 2 -20 -20 -20 -20 -20 -20 -20 -20 -20 -20 -20
-20 -20 -20 -20 -20 -20 -20 -20 -20 -1 5 -17 -20 -20 2 7 18 -3 -20 -20 20 33 13 3 -17 -20 -20 2 -20 10 8 10 2 -20 -20 -20 -20 -20 -12 -20 -20 -20 -20 -20 -20
-20 -20 -20 -20 -20 -20 -20 -20 -20 -5 -17 -19 -18 8 -7 2 16 6 4 -20 13 5 11 15 19 11 -2 19 13 -20 -7 -8 -6 -2 -20 -20 -20 -20 -20 -20 -20 -20 -20 -20 -20
-20 -20 -20 -20 -20 -20 -20 -20 -20 -16 -4 11 2 -20 -20 -3 10 -5 11 22 1 -9 16 27 -15 -5 26 16 6 -20 9 3 -19 -20 -20 -20 -20 -20 -20 -20 -20 -20 -20 -20 -20
-20 -20 -20 -20 -20 -20 -20 -20 -20 -20 -20 0 1 -8 10 10 -5 18 -9 7 -4 4 -18 19 26 4 -18 -7 -20 -20 -19 -8 -20 -20 -20 -20 -20 -20 -20 -20 -20 -20 -20 -20 -20
-20 -20 -20 -20 -20 -20 -20 -20 -20 -20 -20 -20 -20 -5 -20 -20 4 6 -16 2 -20 -20 19 15 16 20 24 -12 -20 -20 -20 -8 -18 -20 -20 -20 -20 -20 -20 -20 -20 -20 -20 -20 -20
-20 -20 -20 -20 -20 -14 -20 -20 -20 -20 -20 -6 -10 -20 -20 -20 -11 -20 -9 -11 -20 -20 21 15 1 -12 -2 10 -20 -20 -20 -20 -20 -20 -20 -20 -20 -20 -20 -20 -20 -20 -20 -20 -20
-20 -17 -20 -20 -20 -20 -18 -20 -20 -3 -20 -20 -20 5 13 -20 -20 -20 9 4 8 -20 15 18 -20 -20 -20 -20 -20 -20 -20 -20 -20 -20 -20 -20 -20 -20 -20 -20 -20 -20 -20 -20 -20
-20 -20 -20 -20 -20 -20 -20 -20 9 -20 1 -9 1 -20 -20 -20 14 8 11 -3 -20 -2 -9 31 3 -20 -20 -20 -20 -20 -20 -20 -20 -20 -20 -20 -20 -20 4 -20 -19 -15 -20 -20 -20
-20 -20 3 -20 -20 -17 5 -20 -20 -13 -20 -9 -5 -3 -20 -11 -12 6 13 16 17 13 5 22 19 -6 -20 -15 -17 -16 -20 -20 -20 -20 -20 -20 -20 -17 -19 -20 -20 -11 -20 -20 -20

GFSSW_prec_radar_219.txt.gz
Reflectivity
1 -20 -14 12 9 12 -8 9 -7 -4 7 -20 -20 -20 16 -17 -20 -20 -18 -20 -20 -20 -20 -20 -8 -20 15 18 14 -9 -20 -20 -20 -1 -3 -6 -4 -20 -20 -20 -20 -20 -20 -20 -20
-20 11 8 10 -20 13 -17 -20 -20 -20 5 8 -20 -4 -20 16 -20 -18 -17 -20 -20 -20 -20 -20 -1 -6 -3 18 18 19 -20 -20 -20 10 12 5 -9 -20 -20 -20 -20 -20 -20 -20 -2
14 13 8 6 11 8 6 -18 -20 5 -20 -20 -10 8 10 14 3 -20 -18 -14 -12 -20 -20 -20 -1 -11 12 13 5 5 -20 -20 -5 9 14 7 -19 -20 -20 -20 -20 -20 -20 -20 -20
8 15 11 13 8 9 12 13 -8 -20 -20 -16 -12 10 12 16 -10 -20 2 -11 12 -5 -20 10 14 9 14 5 5 9 -2 -20 -0 17 11 11 -20 -20 -20 -20 -20 -20 -20 -20 -20
8 -3 -20 1 -20 -20 -20 -20 10 13 11 13 -15 -20 6 7 -3 -20 -20 -20 -17 2 -10 13 12 -2 6 3 21 19 -20 -14 1 22 -9 4 -20 -20 -20 -20 -19 -20 -20 -20 -20
9 -19 10 10 -20 -20 -20 -20 -20 -20 -20 -20 18 20 9 5 -20 -20 -20 -20 -20 3 15 12 -1 4 13 14 13 -9 13 21 15 34 -11 -4 -20 -20 -20 -20 -17 -20 -20 -20 -17
9 5 9 -19 -5 -20 -20 -20 -20 -20 -20 -2 11 10 -2 -2 -20 -20 -20 -20 -20 -20 -18 23 19 15 1 8 5 10 16 24 20 28 34 -2 -20 -20 -20 -20 -20 -20 -20 -20 -20
-11 13 -7 -20 -19 -5 -20 -20 -20 -20 -20 4 14 9 11 -20 -20 -20 -20 -20 -20 -20 -20 -20 4 7 -11 -3 -5 8 26 19 -7 -6 -3 29 -16 -20 -20 -20 -20 -20 -20 -20 -20
-20 -9 4 -20 1 -12 -20 -20 -20 -20 -20 -19 4 13 5 -20 -20 -20 -20 -20 -20 -20 -20 -20 26 8 6 12 9 21 -1 -11 -20 -20 -20 9 3 -20 -20 -20 -4 -18 -20 -20 -20
14 -4 -19 -20 -20 -20 -20 -20 -20 -20 -20 -20 -20 -7 -20 -20 -20 -20 -20 -14 -20 -20 -20 -20 14 -11 -12 19 19 30 -20 -20 -20 -20 -20 -20 -20 10 -20 -20 -13 -16 -20 -20 -20
-18 -20 -6 -20 -20 -20 -20 -20 -20 -10 -20 -20 -20 -10 -20 -20 -20 -19 2 -20 -20 -20 -3 12 18 12 -20 -17 -20 4 -20 -20 -20 -20 -20 -20 -20 -1 12 -20 -20 -20 -20 -20 -20
-13 6 -12 -19 -20 -20 -20 -20 -2 -1 -13 -20 -20 -20 -20 -20 -20 -20 -17 -4 -11 15 2 5 3 -20 -15 1 17 -2 -3 -8 -20 -5 -20 -20 -20 9 6 -20 -20 -19 -20 -20 -20
-7 -11 -13 -20 -20 -20 -20 -20 -20 -10 2 -20 -20 -20 -16 -20 -20 -20 -20 -20 -20 16 20 3 -5 7 14 20 14 10 40 -8 -20 -18 -20 -20 -20 -2 5 -9 -20 -16 -19 -20 -20
-3 -4 4 -19 -20 -20 -20 -20 -20 -20 -20 -20 -20 2 -20 -20 -20 -20 -20 -20 2 -1 16 3 -8 18 10 1 21 33 35 26 12 9 9 -20 -20 -20 -19 -7 -20 -20 -20 -20 -20
4 -20 -5 5 -20 -20 -20 -20 -20 -20 -20 -20 -20 -5 -20 -20 -20 -13 -20 -20 -20 -0 6 8 -20 31 30 -20 -2 24 13 8 1 12 -17 -20 -20 -20 -20 -20 -20 -20 -20 -20 -20
-5 -20 -20 -20 -20 -20 -20 -20 -20 -20 -20 -20 -20 -20 -20 0 -7 -5 7 3 -20 17 23 -20 -20 13 19 10 15 -18 7 18 37 23 19 -16 -20 -20 -20 -20 -20 -20 -20 -20 -20
-20 -20 -20 -20 -20 -20 -20 -20 -20 -20 -20 -20 -20 -20 -20 -20 -9 23 33 28 -9 7 15 -20 -20 -20 -3 24 32 37 16 18 29 27 21 -20 -20 -20 -20 -20 -20 -20 -20 -20 -19
-20 -20 -20 -20 -20 -20 -20 -20 -20 -20 -20 -20 -20 -20 -20 -20 6 -1 7 17 32 13 23 3 11 8 10 28 30 40 23 24 21 17 11 -18 -20 -20 -20 -20 -20 -20 -20 -20 -20
-20 -20 -20 -20 -20 -20 -20 -20 -20 -20 -4 -20 -20 -20 -20 -1 18 9 -17 -14 -14 30 12 24 -18 -20 -18 -20 19 19 29 26 5 -15 -20 -20 -20 -20 -20 -20 -20 -20 -20 -20 -20
-20 -20 -20 -20 -20 -20 -20 -20 -20 -20 -20 -20 1 -20 2 -16 -19 17 7 12 7 4 20 23 20 -16 -20 -16 3 22 30 19 15 16 -17 -20 -20 -20 -20 -20 -20 -20 -20 -20 -20
-20 -20 -20 -20 -20 -20 -20 -20 -20 -20 -20 -20 -20 -14 -20 11 1 9 21 11 4 -8 6 2 21 18 -18 6 -20 14 22 28 9 -20 -20 -20 -20 -20 -20 -20 -20 -20 -20 -20 -20
-20 -20 -20 -20 -20 -20 -20 -20 -20 -20 -20 -20 -20 -20 9 -20 -20 -20 13 19 20 26 21 24 18 15 -18 -20 -20 -20 -20 -15 -19 -20 -20 -20 -20 -20 -20 -20 -20 -20 -20 -20 -20
-20 -20 -20 -20 -20 -20 -20 -20 -20 -20 -20 -20 -20 -18 -19 -16 -14 -20 -20 -0 24 29 24 24 19 15 11 -12 -11 5 -17 -20 -20 -20 -20 -20 -20 -20 -20 -20 -20 -20 -20 -20 -20
-20 -20 -20 -20 -20 -20 -20 -20 -18 -20 -20 -20 -20 -14 -20 -20 -20 -20 11 10 23 20 20 8 6 12 -9 -20 -20 -20 -20 -20 -20 -20 -20 -20 -20 -20 -20 -20 -20 -20 -20 -20 -20
-20 -20 -20 -20 -20 -20 -20 -20 -20 -7 -20 -20 -20 -19 1 -3 -20 -20 -12 -19 -13 -1 -15 -0 -19 -15 20 -10 -20 -20 -20 -20 -20 -20 -19 -20 -20 -20 -20 -20 -20 -20 -20 -20 -20
-20 -20 -20 -20 -20 -20 -20 -20 -20 -20 -5 -20 -4 -20 -20 6 12 -10 1 -15 -4 15 21 -2 -7 -20 -20 -20 -19 -20 -20 4 10 -20 -20 -20 -20 -20 -20 -20 -20 -20 -20 -20 -20
-20 -20 -20 -20 -20 -20 -20 -20 -20 -20 -20 -19 -20 -8 -20 -2 -20 -20 -20 -20 5 16 -18 -12 -20 -20 -20 -20 -20 -20 -20 -7 -20 -20 -20 -20 -20 -20 -20 -19 -20 -20 -20 -20 -20

GFSSW_prec_radar_222.txt.gz
Reflectivity
-15 0 17 10 -5 -10 -20 -20 -10 -20 -20 4 0 5 -20 -20 -20 -15 -20 -20 -20 -20 -20 -20 -20 -20 8 20 13 20 -10 -20 -20 -20 -10 12 7 8 -20 -20 -20 -20 -20 -20 -20
-20 9 -1 12 13 14 15 12 14 4 -7 -20 -20 -20 7 7 5 -20 -20 -20 -20 -20 -20 -20 -20 -6 14 21 8 26 10 -20 -20 -20 -20 9 14 -14 -20 -20 -20 -20 -20 -20 -20
4 12 6 -20 7 -17 -20 -20 -18 -4 -20 -20 7 13 8 10 4 -20 -20 4 5 7 -10 2 -20 -16 4 13 18 9 -16 -20 -20 -20 -20 9 19 -20 -20 -20 -20 -20 -20 1 -20
-1 12 -10 -16 4 -5 -20 -20 -20 -20 -20 8 11 14 -17 7 -19 -20 18 18 12 -9 -17 11 17 15 10 13 10 10 11 -19 -20 -20 -20 -10 4 -20 -20 -20 -20 -20 -20 -9 -20
11 -5 7 4 -20 -20 -20 -20 -20 -20 -10 8 1 -10 14 -1 -12 -20 16 13 7 -20 -0 11 13 -2 -5 -20 13 17 16 4 -14 -20 -20 -20 5 -20 -20 -20 -20 -20 -20 -20 -20
-20 -13 7 8 -20 -20 -20 -20 -20 -20 -20 7 3 -3 12 0 -20 -20 -20 -20 -1 6 -5 15 6 -1 10 -11 10 11 1 15 6 -4 -20 0 9 -20 -20 -20 -20 -20 -20 -20 -20
10 -19 -18 1 -20 -11 -20 -20 -20 -20 -20 3 19 13 16 -4 -20 -20 -20 -20 -20 -0 18 -15 3 27 -18 12 -20 10 18 24 18 5 0 18 -5 -20 -20 -20 -20 -20 -20 -20 -19
-20 10 -18 -13 -16 -4 -0 -20 -20 -20 -20 -20 -17 13 16 -20 -20 -20 -20 -20 -20 -20 -10 15 26 -11 20 5 1 17 22 23 -15 11 21 25 28 -20 -20 -20 -20 -9 -10 14 -1
-2 -4 -20 -20 9 11 3 -20 -20 -20 -20 -20 -20 -3 -19 -20 -20 -20 -20 -20 -20 -20 -20 -0 28 28 23 4 8 20 7 -15 -11 11 12 28 -7 14 -20 -20 -20 2 -3 2 4
-20 -20 -5 9 9 5 -0 -20 -20 -20 -20 -20 -20 -20 -20 -20 -20 -20 -20 -20 -20 -20 -20 -20 10 24 25 15 14 0 -4 27 2 -11 6 -15 -20 5 15 -20 -15 -9 8 -10 -17
11 4 -13 5 7 -20 -20 -20 -15 -20 -20 -20 -20 -20 -20 -20 -20 -20 -20 5 -6 -4 -20 -20 -5 8 -20 -9 -20 9 13 -20 -20 -18 -20 -20 -20 15 7 -4 -16 4 8 -11 -20
-12 6 6 6 -10 -20 -20 -20 15 24 -13 -20 -20 -20 -20 -20 -20 -20 -20 -20 -20 -20 10 14 -9 -20 0 -5 7 -20 -1 11 -20 -6 13 -20 -20 4 8 -20 -20 -19 -7 -9 -17
3 8 -3 -20 -20 -20 -20 -20 -20 -20 6 -20 -20 -20 -20 -20 -20 -20 -20 -20 -20 -20 -20 13 -20 -20 -8 1 7 -5 -10 8 -11 0 14 0 -5 3 4 -20 -18 -8 -4 5 2
2 7 1 -19 -20 -20 -20 -20 -20 -20 -20 -20 -20 -17 -20 -20 -20 -20 -20 -20 -20 -20 -20 -1 14 7 -20 -4 8 -20 -17 -8 15 12 27 -12 4 -20 -20 -20 -20 -20 -20 -20 -20
-13 -7 -15 -20 -20 -20 -20 -20 -20 -20 -20 -20 -20 -20 -20 -20 -20 -20 -20 1 -20 -20 3 -20 -4 17 17 -20 -20 -6 -16 -7 -14 17 17 -10 -18 -20 -20 -20 -20 -20 -20 -20 -20
-20 -20 -20 -20 -20 -20 -20 -20 -20 -20 -20 -20 -20 -20 -20 -20 -20 -11 7 -20 -6 10 22 -20 -20 -15 26 -16 -5 -20 7 14 15 33 26 1 -20 -20 -20 -20 -20 -20 -9 6 -9
-20 -20 -20 -20 -20 -20 -20 -20 -20 -20 -20 -20 -20 -20 -20 -20 -20 -19 26 14 -19 -11 -7 -3 -20 -20 12 21 -4 10 33 29 31 31 27 -3 -20 -20 -20 -20 -20 -16 -3 5 -0
-20 -20 -20 -20 -20 -20 -20 -20 -20 -20 -20 -20 -20 -20 -20 -5 -20 -11 15 -15 10 8 9 6 -20 -20 -15 -17 12 0 -5 24 26 20 11 5 -0 -20 -20 -20 -20 -14 -20 -11 -5
-20 -20 -20 -20 -20 -20 -20 -20 -20 -20 -20 -18 -20 -20 -20 -20 5 18 2 -20 -4 13 10 2 -18 -20 -20 -20 7 15 23 16 12 21 -18 -0 -19 -20 -20 -20 -20 -20 -20 -20 -20
-20 -20 -20 -20 -20 -20 -20 -20 -20 -20 -20 -20 -20 -20 2 -20 -16 15 15 30 9 -16 1 0 14 -20 -20 13 18 28 23 29 19 9 -18 -20 -20 -20 -20 -20 -20 -20 -20 -20 -20
-20 -20 -20 -20 -20 -20 -20 -20 -20 -20 -20 -20 -20 -20 -14 -12 -17 1 6 15 31 28 -3 5 17 16 6 12 20 -5 24 27 22 11 5 -20 -20 -20 -20 -20 -20 -20 -20 -20 -20
-20 -20 -20 -20 -20 -20 -20 -20 -20 -20 -20 -20 -20 -19 0 -20 -8 -20 3 23 34 33 24 25 -13 21 6 -18 -15 -8 4 28 8 13 -19 -19 -20 -20 -20 -20 -20 -20 -20 -20 -20
-20 -20 -20 -20 -20 -20 -20 -20 -20 -20 -20 -16 -13 10 -16 -20 -17 -20 -20 -18 6 30 34 31 2 20 6 6 2 10 15 17 -1 20 15 16 -20 -20 -20 -20 -20 -20 -20 -20 -20
-20 -20 -20 -20 -20 -20 -20 -20 -20 -20 -20 -20 -20 -20 -20 -20 -20 -20 -20 -20 -20 21 34 28 14 3 -20 -20 -20 -20 -19 10 -10 -16 -20 -20 -20 -20 -20 -20 -20 -20 -20 -20 -20
-20 -20 -20 -20 -20 -20 -20 -20 -20 -20 -20 -20 -20 -20 3 -7 -20 -20 -20 -20 -20 -2 20 30 -10 22 -20 -20 -20 -20 -20 -8 1 -20 -20 -20 -20 -20 -20 -20 -20 -20 -20 -20 -20
-20 -20 -20 -20 -20 -20 -20 -20 -20 -20 -20 -20 -3 -20 -20 8 12 -17 -20 -16 -14 -20 4 10 -4 10 -19 -20 -20 -20 16 22 18 -20 -20 -20 -20 -20 -20 -20 -20 -20 -20 -20 -20
-20 -20 -20 -20 -20 -20 -20 -20 -20 -20 -20 -20 -20 -20 -19 -9 -20 -20 -20 -20 -20 -7 9 -5 -5 -3 -20 -20 -20 -20 -20 -20 -20 -20 -20 -20 -20 -20 -20 -20 -20 -20 -20 -20 -20

GFSSW_prec_radar_228.txt.gz
Reflectivity
10 12 10 8 -16 -6 11 -11 -20 -20 -20 -13 -20 -20 6 15 16 -20 -20 -20 -20 -20 -20 -20 -20 -20 3 7 13 18 20 5 -16 -20 -20 -20 -20 -9 4 10 -20 -20 -20 -20 -20
5 6 -20 -20 -3 3 -20 -20 -20 -20 -20 -20 -9 3 -20 -10 -14 -20 -4 25 -1 -20 -15 -0 -20 -12 -2 5 19 21 18 -19 -20 -19 -20 -20 -20 -20 18 -1 3 -20 -20 -14 -19
-20 -20 -13 -17 8 -15 -20 -20 -20 -20 -16 11 10 -10 6 12 -9 -20 24 13 14 12 -18 -16 -20 -6 9 5 12 -12 30 -2 -20 -15 -20 -20 -20 -20 -4 21 13 6 -16 -18 -17
-20 -20 -13 8 5 -20 -17 -20 -20 -18 11 -14 15 10 9 13 -19 -20 23 9 10 -16 -20 -20 -11 6 -18 -6 -2 7 -16 30 -16 16 -20 -20 -20 -20 -20 -3 17 13 2 -18 -20
-20 9 8 -2 -7 -20 -11 -20 -20 -0 13 10 -20 4 11 9 -20 -20 19 13 -7 -16 -20 -5 -9 -3 -19 -20 0 3 -20 -14 17 14 -4 -18 -20 -20 -20 -13 7 -5 -17 4 -13
-20 -20 -20 -19 -0 10 4 -20 -20 -20 4 -20 -20 6 14 1 -20 -20 -20 -8 -5 -3 -20 -20 -2 -20 -8 -18 1 -20 6 4 21 23 30 -9 -20 -20 -20 -20 -8 -20 1 -20 -20
8 14 8 -4 -0 -9 -5 -0 -20 -20 -17 -20 -9 9 14 -20 -20 -20 -20 -20 -20 -0 -13 -20 8 -20 7 3 -20 -18 20 5 -20 -5 33 20 20 -20 -20 -20 -18 -20 -20 -2 -20
-20 -18 -17 5 6 4 -12 -20 -20 -20 -20 -20 -20 -20 -18 -20 -20 -20 -20 -20 -20 -20 -6 -4 -0 -4 -20 -15 12 -6 12 6 -19 16 28 34 15 -20 -20 -20 -20 -20 -20 -20 -13
-20 -16 -2 0 -8 -3 -20 -20 -20 -20 -20 -20 -20 -20 -20 -20 -20 -20 -20 -20 -20 -20 -18 18 6 28 1 1 14 15 -20 -20 -3 -20 2 37 24 -19 -5 -20 -20 -20 -20 -20 -8
-20 -3 -8 -2 -6 -16 -20 -20 -20 -20 -20 -20 -20 -20 -20 -20 -20 -20 -20 -20 -20 1 -15 -9 8 15 30 9 11 1 -11 -20 -20 -20 16 11 29 15 -20 -20 -20 -20 -15 0 -10
-20 0 -20 -12 -8 -20 -20 -20 -20 -20 -20 -20 -20 -20 -20 -20 -20 -20 -20 -20 6 8 -20 -20 3 10 14 -7 -20 8 -20 -20 -20 -20 21 -2 6 24 -14 -20 -20 -5 5 -16 -19
-20 1 -20 -20 -20 -20 -20 -20 6 12 -14 -20 -20 -20 -20 -20 -20 -20 -20 -20 -20 -8 12 13 -10 -20 -7 18 -9 19 10 -2 -20 -13 -1 16 22 17 29 -18 -20 -20 -20 11 -11
5 3 -20 -20 -20 -20 -20 -20 -20 -18 -8 -20 -20 -20 -20 -20 -20 -20 -20 -20 -20 -6 -7 7 -20 -20 14 18 -11 25 -4 6 -9 6 -1 11 10 30 19 -20 -19 -20 7 8 14
-17 -17 -20 -20 -20 -20 -20 -20 -20 -5 -19 -20 -20 -20 -20 -20 -20 -20 -20 -15 6 9 11 -20 -20 -20 -19 -2 23 10 -12 -20 7 24 16 -9 7 7 9 -17 -20 -19 20 8 6
-20 -20 -20 -20 -20 -20 -20 -20 -20 -20 -20 -20 -20 -20 -20 -20 -20 -20 -20 -20 2 9 -20 -19 -20 -20 -20 -19 22 33 26 -10 14 19 6 2 25 -20 -16 1 -20 -20 30 -19 -20
-20 -20 -20 -20 -20 -20 -20 -20 -20 -20 -20 -20 -20 -20 -20 -20 -20 -4 10 -4 6 14 7 -1 -2 -19 -20 -20 -3 27 22 32 27 22 29 -18 -10 10 -13 -20 -20 -20 -19 3 -4
-20 -20 -20 -20 -20 -20 -20 -20 -20 -20 -20 -20 -20 -20 -20 -20 -20 -14 1 5 15 13 9 3 -6 -20 -2 -12 14 14 34 18 16 17 13 -20 22 15 -20 -20 -1 -13 -6 -15 28
-20 -20 -20 -20 -20 -20 -20 -20 -20 -20 -20 -20 -20 -20 -20 -20 -20 -20 4 0 7 13 7 8 4 -20 -20 -17 9 10 23 -20 -9 4 -10 -6 11 -20 -20 -20 -20 2 13 22 22
-20 -20 -20 -20 -20 -20 -20 -20 -20 -20 -20 -4 -18 -20 -20 -7 -12 -19 -20 9 24 34 18 11 -7 -20 -20 -20 -6 20 7 -20 -20 -20 -10 -20 -20 -20 -20 -20 -20 -20 -4 9 0
-20 -20 -20 -20 -20 -20 -20 -20 -20 -20 -20 -8 8 -3 -6 -7 -16 -20 9 10 22 31 31 26 15 -19 -20 6 18 13 -7 12 -8 21 14 -18 -20 -20 -20 -20 -20 -20 -20 -20 -20
-20 -20 -20 -20 -20 -20 -20 -20 -20 -20 -20 9 10 9 4 4 -18 -0 -19 -19 9 1 22 33 7 26 -6 1 -2 1 14 -16 -18 10 14 8 -6 -20 -20 -20 -20 -20 -20 -20 -15
-20 -20 -20 -20 -20 -20 -20 -20 -20 -20 -20 -18 10 12 11 -20 -5 4 -2 -20 -20 -0 15 15 12 17 -13 -20 -20 -20 11 -3 -17 -20 -19 -19 -15 -20 -20 -20 -20 -20 -20 -20 -20
-20 -20 -20 -20 -20 -20 -20 -20 -20 -20 -20 -20 -20 9 1 -20 -6 -20 -20 -20 -20 -20 17 25 23 13 20 6 9 6 20 -15 -17 -20 -11 -20 -13 -20 -20 -20 -20 -20 -20 -20 -20
-20 -20 -20 -20 -20 -20 -20 -20 -20 -20 -20 -20 -20 -9 -20 -20 -16 -9 -3 -13 -20 -20 24 21 21 2 7 -13 -6 7 0 1 -12 -1 -9 -20 -20 -20 -20 -20 -20 -20 -20 -20 -20
-20 -20 -20 -20 -20 -20 -6 -20 -20 -20 -20 -20 -20 -19 -20 -17 -20 -17 -20 -20 -20 -20 7 1 13 4 -19 -18 -2 -15 -15 -6 14 -20 -19 15 -16 -20 -20 -20 -20 -20 -20 -20 -20
-20 -20 -20 -20 -20 -20 -20 -20 -20 -20 -20 -20 -20 -20 -20 -20 -20 -15 -1 -20 -12 -17 -20 -19 -4 9 16 -16 -20 -1 28 24 8 20 -20 -5 6 0 -20 -20 -20 -20 -20 -20 -20
-20 -20 -20 -20 -20 -20 -20 -20 -20 -20 -20 -20 -20 -20 -20 -20 -20 -20 -20 -20 -20 -9 -4 -1 9 11 23 1 12 13 23 26 9 -14 11 11 18 14 -8 -20 -20 -20 -20 -20 -20

GFSSW_prec_radar_234.txt.gz
Reflectivity
-20 -20 -20 -18 -14 3 10 7 -20 -20 -8 11 13 14 8 -11 -20 -20 -20 -20 -5 -20 -20 -20 -20 -18 -20 12 -0 -1 25 21 -20 -20 -20 -2 3 -10 4 -20 -6 14 -12 -20 -20
-20 -20 -15 -11 -20 -20 -20 -20 -5 9 -8 -15 -11 4 15 5 -20 -20 -20 -15 11 -20 -20 1 -20 -20 -20 -3 25 27 16 -4 5 -20 -20 7 4 -5 -13 -19 -20 11 16 -20 -20
-20 -20 2 11 10 6 -16 -17 -20 1 -20 5 0 -20 9 -20 -20 1 -20 -20 -5 1 -20 -20 -20 -20 -20 0 8 19 -14 -20 -19 -20 21 24 -13 28 9 22 -20 -15 8 -20 -17
-18 5 -15 -20 -20 -1 -18 -18 -20 1 -13 3 -20 5 -17 -17 -18 -20 -20 -17 26 15 -20 -20 -20 -20 -20 7 -20 16 9 7 21 -19 -6 -3 33 30 22 -20 -20 -20 -0 9 1
-20 -20 -20 -20 -20 -20 -20 -20 -20 -3 -7 -20 0 6 8 3 -20 -20 -20 -20 -20 -13 -2 -20 -20 -6 -13 -16 -20 -11 -2 5 -20 21 -15 27 27 7 -5 -18 -15 -20 -20 8 -8
-20 -20 -20 -20 -20 -20 -20 -20 -20 -20 -20 -20 -19 -12 9 -9 -20 -20 -20 -20 -20 -20 -11 -20 -16 -20 -20 -20 -4 -20 -20 -20 -20 -14 9 32 26 29 10 -13 -7 -20 -20 -3 13
-20 -20 -20 -12 -20 -20 -20 -20 -20 -20 -20 -20 -20 -20 3 -20 -20 -20 -20 -20 -20 -20 -9 10 -18 -20 -9 -2 -20 -20 -17 -9 -20 -20 -5 23 30 40 28 30 -5 -20 -19 -19 5
-20 -20 -20 -15 -5 -20 -20 -20 -20 -20 -20 -20 -20 -20 -20 -20 -20 -20 -20 -20 1 -20 -20 -20 -3 -19 -20 -20 -20 -20 -20 8 -20 5 17 3 -20 -20 33 31 1 -20 -20 31 -3
-20 -20 -15 -13 -20 -20 -20 -20 -20 -20 -20 -20 -20 -20 2 -20 -20 -20 -20 -20 -20 -20 -8 -20 7 -2 1 -20 -13 12 -20 -17 -20 -20 1 -5 -20 -13 12 2 20 23 -20 -20 11
-20 -20 -20 -20 -20 -20 -20 -20 -20 -20 -20 -20 -20 -20 -17 -20 -20 -20 -20 -20 -20 -20 7 18 -3 -7 11 19 -8 -12 -20 -20 -20 -20 -20 9 -20 -16 28 37 32 -20 -18 -20 23
-20 -20 -20 -20 -20 -20 -20 -20 -20 -20 -20 -20 -20 -20 -20 -20 -20 -20 -20 -20 -20 -20 2 24 13 9 -20 -20 7 -20 -9 -20 -20 -20 -20 -20 -6 -8 13 25 36 29 27 -20 29
-20 -20 -20 -20 -20 -20 -20 -20 -20 -20 -15 -20 -20 -20 -20 -20 -20 -20 -20 -19 0 16 -13 13 -20 -6 -20 5 11 -13 -14 -14 11 2 -18 18 5 -12 4 21 8 32 34 31 27
-20 -20 -20 -20 -20 -20 -20 -20 -20 -20 -16 -20 -20 -20 -20 -20 -20 -20 -20 -20 2 -0 13 11 -20 12 7 -13 15 -16 -20 -20 -20 -10 10 -18 15 21 -17 -5 17 37 24 42 24
-20 -20 -20 -20 -20 -20 -20 -20 -20 -7 -20 -20 -20 -20 -20 -20 -18 -20 -20 -14 -10 -19 9 -15 -20 -20 -5 -11 -7 4 -20 -20 14 16 15 -20 2 -14 -17 -9 15 19 32 25 7
-20 -20 -20 -20 -20 -20 -20 -20 -20 -19 -20 -20 -20 -20 -20 -20 -20 -20 -20 -18 6 1 3 -20 -20 4 -20 -20 2 7 -1 -10 10 41 15 -20 11 -20 -20 9 3 -10 22 23 42
-20 -20 -20 -20 -20 -20 -20 -20 -20 -8 -20 -20 -20 -20 -20 -20 -20 -20 -20 -3 -14 -17 -20 -20 -20 -20 -20 -20 -4 7 27 1 -20 9 22 19 -4 -20 -20 -17 -20 -12 11 8 39
-20 -20 -20 -20 -20 -20 -20 -20 -7 -20 -20 -20 -20 -20 -20 -20 -20 -20 -20 31 11 -13 -5 -20 -20 -20 -20 4 -20 14 11 14 -14 -19 -14 16 32 -14 -20 -12 1 16 -18 -10 34
-20 -20 -20 -20 -20 -20 -20 -20 -18 -20 -20 -20 -20 -20 -17 -18 -20 -20 -20 17 1 -20 -18 7 -5 12 -20 -20 -20 1 -19 -20 -20 -20 -20 -19 25 -20 -20 -20 4 15 -19 -20 6
-20 -20 -20 -20 -20 -20 -20 -20 -20 -20 -20 -20 -20 -20 -20 -20 -20 -20 -20 11 4 1 9 -17 -2 19 4 -20 -7 8 4 -20 -13 -20 -10 -20 8 -20 -20 -20 -19 4 -5 -20 -20
-20 -20 -20 -20 -20 -20 -17 -10 -20 -20 -20 -20 0 -13 -1 -8 -20 -20 -20 10 -12 2 6 1 4 15 12 -16 -20 15 -20 -20 -3 -5 8 -20 -20 -20 -20 -20 -20 -20 -12 -20 -20
-20 -20 -20 -20 -20 -20 -20 -20 -20 -20 -20 -20 -20 -6 -12 -20 -20 -20 -9 1 10 -20 -1 -1 12 -1 21 -18 -20 21 -20 -18 4 17 21 -20 0 -20 17 -20 -20 -15 -20 -20 -20
-20 -20 -20 -20 -20 -20 -20 -20 -20 -20 -20 -20 -20 -20 -20 -20 -20 -20 4 3 -20 -20 -20 18 -1 -20 7 19 -20 -16 -20 -16 8 21 23 -4 -20 -20 -20 -20 -20 -20 -17 -20 -20
-20 -20 -20 -20 -20 -20 -20 -20 -20 -20 -20 -20 -20 -20 -20 -20 -20 -20 -20 -20 -20 -20 -17 2 -6 -12 16 -13 5 -2 -12 5 9 18 14 11 -16 -20 -20 -20 -20 -20 -20 -20 -20
-20 -20 -20 -20 -20 -20 -20 -20 -20 -20 -20 -20 -20 -20 -20 -20 -20 -20 -20 -20 -20 -20 -20 -19 1 10 14 7 17 -20 -19 -20 -15 -16 9 6 -20 -20 -20 -20 -20 -20 -20 -20 -20
-20 -20 -20 -20 -20 -20 -20 -20 -20 -20 -20 -20 -20 -20 -20 -20 -20 -20 -20 -20 -20 -17 -20 -15 -10 -20 -20 -20 -19 -10 4 -20 -20 -20 12 -20 14 -20 -20 -18 -20 -20 -20 -20 -11
-20 -20 -20 -9 -20 -20 -20 -20 -20 -20 -20 -20 -20 -20 -20 -20 -20 -20 -20 -20 -20 -20 -20 -20 -14 -20 -20 -20 -20 10 -19 2 1 14 -18 -20 -20 2 -20 -20 -20 -20 -20 -20 -20
-20 -20 -5 -13 -18 -12 -20 -20 -20 -20 -20 -20 -20 -20 -20 -20 -20 -20 -20 -20 -20 -20 -17 0 -0 -14 -20 12 16 19 20 1 -20 21 -5 -20 -20 -10 -20 -20 8 -3 -20 -20 -20

GFSSW_prec_radar_240.txt.gz
Reflectivity
-20 -20 -20 -20 -20 -20 -20 -20 -20 -20 -10 -20 -20 -11 -6 -20 -20 -20 -20 -20 -20 6 21 7 -5 -7 15 -19 -11 20 22 5 -7 -7 -20 -14 -19 -20 -20 -20 -20 -20 -19 -6 -2
-20 -20 -20 -20 -20 -20 -20 -20 -20 -16 1 -20 -20 -3 -18 7 -20 -20 22 -8 -10 22 -20 -20 -20 -20 14 -2 8 2 15 -4 -20 -20 -20 17 -1 -20 16 -5 -20 -20 -20 -2 3
-20 -20 -20 -20 -20 -20 -20 -20 -20 -18 1 5 -3 -18 2 -20 -20 -8 -14 -19 -18 4 -20 -20 -20 13 12 8 13 -16 -17 -19 -13 -20 -6 31 32 21 20 -20 -20 -20 -18 26 -19
-20 -20 -20 -20 -20 -20 -20 -20 -20 -20 1 2 -20 -20 -20 -20 -20 -20 -20 -20 -20 -20 -20 -20 -20 -4 11 2 -11 18 15 -5 -20 -20 20 18 36 -12 24 -5 -20 26 14 -20 28
-20 -20 -20 -20 -20 -20 -20 -20 -20 -20 -20 -20 3 -20 -17 -20 -20 -20 -20 -20 -20 -20 -20 -20 4 -5 11 10 12 12 -20 -20 1 -9 -5 25 14 30 2 19 -20 -18 25 -20 23
-20 -20 -20 -20 -20 -20 -20 -20 -20 -20 -20 -20 -20 -20 -20 -20 -20 -20 -20 -20 -20 -20 -20 -20 4 -20 -20 -18 -9 -11 -19 -20 -11 2 22 22 -0 14 40 35 -16 -20 -16 22 25
-20 -20 -20 -20 -20 -20 -20 -20 -20 -20 -20 -20 -20 -20 -20 -20 -20 -20 -20 -20 -20 -20 -20 -20 -20 16 -20 -20 -13 1 7 -20 -20 -20 15 25 8 -20 13 22 18 -20 -20 -20 20
-20 -20 -20 -20 -20 -20 -20 -20 -20 -20 -20 -20 -20 -20 -20 -20 -20 -20 -20 -20 -20 -20 -20 -20 -20 -14 -20 -20 -0 3 14 5 -20 -19 1 25 22 -20 -15 33 29 18 -20 -20 12
-20 -20 -20 -20 -20 -20 -20 -20 -20 -20 -20 -20 -20 -20 -20 -20 -20 -20 -20 -20 -20 -20 -20 -19 -20 -5 -5 13 -20 -20 -20 -20 -20 -20 10 21 5 22 18 12 21 35 2 -15 17
-20 -20 -20 -20 -20 -20 -20 -20 -20 -20 -20 -20 -20 -20 -20 -20 -20 -20 -20 -20 -20 -20 -20 -20 -20 -20 -20 -14 -18 -20 4 -20 -20 -17 -2 -13 3 17 2 -5 20 24 22 16 22
-20 -20 -20 -20 -20 -20 -20 -20 -20 -20 -20 -20 -20 -20 -20 -20 -20 -20 -20 -20 -20 -20 -20 -20 -20 -15 -20 -20 -20 -20 -20 -20 -20 -20 -17 -20 8 18 17 -12 30 37 15 -8 22
-20 -20 -20 -20 -20 -20 -20 -20 -20 -20 -20 -20 -20 -20 -20 -20 -20 -20 -20 -20 -20 -20 -20 -20 -20 -20 -20 -20 -20 -20 -20 -20 -20 -20 -20 -20 -13 10 2 14 19 22 37 25 -1
-20 -20 -20 -20 -20 -20 -20 -20 -20 -20 -20 -20 -20 -20 -20 -20 -20 -20 -20 -20 -20 -20 -20 -20 -20 -20 -20 -8 -3 -8 -20 -20 -20 -20 -20 -20 -20 -20 -20 -0 21 25 35 14 -19
-20 -20 -20 -20 -20 -20 -20 -20 -20 -20 -20 -20 -20 -20 -20 -20 -20 -20 -20 -20 -20 -20 -20 -20 -20 -20 -20 -20 -8 -20 -19 -20 -20 -20 -14 -20 -20 -20 -20 -20 -11 16 29 35 5
-20 -20 -20 -20 -20 -20 -20 -20 -20 -20 -20 -20 -20 -20 -20 -20 -20 -20 -20 -20 -20 -20 -20 -20 -20 -20 -20 -20 -6 -20 11 12 -2 -17 -20 -20 -15 -20 -20 -20 -11 -6 -2 1 -13
-20 -20 -20 -20 -20 -20 -20 -20 -20 -20 -20 -20 -20 -20 -20 -20 -20 -20 -20 -20 -20 -20 -20 -20 -20 -20 -20 -20 -20 15 -15 5 7 -20 -20 -20 -20 -20 -20 -20 -16 -2 -20 5 29
-20 -20 -20 -20 -20 -20 -20 -20 -20 -20 -20 -20 -20 -20 -20 -20 -20 -20 -20 -20 -20 -20 -20 -20 -20 -20 -20 -20 -2 7 -20 -20 -20 -20 -20 -13 -12 -20 -20 -18 5 13 -6 -8 0
-20 -20 -20 -20 -20 -20 -20 -20 -20 -20 -20 -20 -20 -20 -20 -20 -20 -20 -20 -20 -20 -20 -20 -20 -20 -20 -20 -20 -20 -20 -20 -20 -20 -20 -20 -20 5 -20 -20 -19 -1 11 10 -15 -20
-20 -20 -20 -20 -20 -20 -20 -20 -20 -20 -20 -20 -20 -20 -20 -20 -20 -20 -20 -16 -18 -20 -20 -20 -20 -12 -20 -20 -20 -20 -16 -10 -20 -20 -20 -20 -20 -20 -20 -20 -1 -3 -20 -20 -1
-20 -20 -20 -20 -20 -20 -20 -20 -20 -20 -20 -20 -20 -20 -20 -20 -20 -20 -20 -0 -20 -20 -20 -20 -19 -20 -20 -9 -20 -20 -20 -18 -20 -20 -20 -20 -20 -18 -20 -20 -20 -20 -20 -20 -4
-20 -20 -20 -20 -20 -20 -20 -20 -20 -20 -20 -20 -20 -20 -20 -20 -20 -20 -20 -20 -20 -20 -20 -20 -16 1 -20 -11 -20 -20 -20 -5 -15 5 -18 -4 -20 -18 -1 5 -20 -20 -20 -20 5
-20 -20 -20 -20 -20 -20 -20 -20 -20 -20 -20 -20 -20 -20 -20 -20 -20 -20 -20 -20 -20 -20 -20 -20 -11 1 13 -20 -19 -20 7 -20 -19 -8 11 -20 -20 -17 6 7 -19 -20 -20 -20 5
-20 -20 -20 -20 -20 -20 -20 -20 -20 -20 -20 -20 -20 -20 -20 -20 -20 -20 -20 -20 -20 -20 -20 -20 -20 -20 9 19 2 -16 -2 -15 3 -20 -20 -20 -20 -20 5 -20 -20 -20 -14 -20 -20
-20 -20 -20 -20 -20 -20 -20 -20 -20 -20 -20 -20 -20 -20 -20 -20 -20 -20 -20 -20 -20 -20 -9 -20 -20 -20 -20 -20 -12 -20 -20 -10 8 -19 -10 -16 -20 -20 -16 -20 -20 -20 -16 -16 -18
-20 -20 -20 -20 -20 -20 -20 -20 -20 -20 -20 -20 -20 -20 -20 -20 -20 -20 -20 -20 -20 -20 -20 -20 -20 -20 -20 -20 13 -18 -20 -20 -20 -6 9 -13 9 -20 -20 -20 -20 -20 -19 12 -19
-20 -20 -20 -20 -20 -20 -20 -20 -20 -20 -20 -20 -20 -20 -20 -20 -20 -20 -20 -20 -20 -20 -20 -20 -20 -20 -20 -9 -4 -20 -2 -1 -13 -4 -16 12 13 18 14 -20 -20 -20 22 13 -20
-20 -20 -20 -20 -20 -20 -20 -20 -20 -20 -20 -20 -20 -20 -20 -20 -20 -20 -20 -20 -20 -20 -20 -20 -20 -20 -20 -17 22 -17 -1 8 -7 -20 -10 -20 11 5 -5 -20 -20 -20 -20 -20 -11

GFSSW_prec_radar_246.txt.gz
Reflectivity
-20 -20 -20 -20 -20 -20 -20 -20 -20 -20 -20 -20 -20 3 -20 -20 -20 -20 -20 -20 34 4 18 0 -20 -20 -17 -14 12 22 -4 37 29 -20 -20 -20 -12 -20 14 -20 -20 -20 -20 -20 13
-20 -20 -20 -20 -20 -20 -20 -20 -20 -20 -20 -20 -14 -20 -0 -20 -20 -20 -20 -16 -11 9 -20 -20 -12 -20 -20 -20 -7 8 15 -20 18 4 -20 4 18 29 -20 -1 -20 -20 -20 13 9
-20 -20 -20 -20 -20 -20 -20 -20 -20 -20 -20 -20 -20 -4 -20 -20 -20 -20 -20 -20 -20 -20 -20 -20 -20 -20 -20 -20 -5 -17 10 -15 -20 -20 17 -17 15 29 30 -20 -20 -20 -20 22 33
-20 -20 -20 -20 -20 -20 -20 -20 -20 -20 -20 -20 -20 -14 -20 -20 -20 -20 -20 -20 -20 -20 -20 -20 -20 9 13 14 -20 10 -20 -20 -13 -20 21 -20 23 24 27 22 -20 -20 -20 24 29
-20 -20 -20 -20 -20 -20 -20 -20 -20 -20 -20 -20 -20 -20 -20 -20 -20 -20 -20 -20 -20 -20 -20 -20 -20 -9 16 27 -2 12 -9 3 -15 17 -16 26 15 34 16 20 -17 -20 -20 23 -13
-20 -20 -20 -20 -20 -20 -20 -20 -20 -20 -20 -20 -20 -20 -20 -20 -20 -20 -20 -20 -20 -20 -20 -20 -1 -20 -18 34 10 18 -20 -20 -5 -6 17 22 4 29 19 31 -18 -20 -20 21 25
-20 -20 -20 -20 -20 -20 -20 -20 -20 -20 -20 -20 -20 -20 -20 -20 -20 -20 -20 -20 -20 -20 -20 -20 -20 5 -20 33 6 -17 11 8 -20 -20 -16 4 14 9 22 36 21 -20 -20 22 20
-20 -20 -20 -20 -20 -20 -20 -20 -20 -20 -20 -20 -20 -20 -20 -20 -20 -20 -20 -20 -20 -20 -20 -19 -20 -20 -16 -1 22 14 10 9 2 -20 -20 25 -14 3 17 40 28 14 8 25 25
-20 -20 -20 -20 -20 -20 -20 -20 -20 -20 -20 -20 -20 -20 -20 -20 -20 -20 -20 -20 -20 -20 -20 -20 -20 -20 -20 -20 -20 -20 -20 -20 7 -20 3 8 -19 -4 3 27 34 15 21 21 25
-20 -20 -20 -20 -20 -20 -20 -20 -20 -20 -20 -20 -20 -20 -20 -20 -20 -20 -20 -20 -20 -20 -20 -20 -20 -20 -20 1 -12 -20 -20 0 7 -20 18 23 13 -12 12 35 36 15 24 18 7
-20 -20 -20 -20 -20 -20 -20 -20 -20 -20 -20 -20 -20 -20 -20 -20 -20 -20 -20 -20 -20 -20 -20 -20 -20 -20 -20 -20 11 -18 -20 7 -6 -20 -20 -3 15 17 12 15 29 16 26 12 22
-20 -20 -20 -20 -20 -20 -20 -20 -20 -20 -20 -20 -20 -20 -20 -20 -20 -20 -20 -20 -20 -20 -20 -20 -20 -20 -20 -20 -20 -20 -20 -20 -20 -20 -20 6 -14 6 13 16 33 36 33 30 21
-20 -20 -20 -20 -20 -20 -20 -20 -20 -20 -20 -20 -20 -20 -20 -20 -20 -20 -20 -20 -20 -20 -20 -20 -20 -20 -20 -11 -20 -20 -20 -20 -20 -20 -20 -6 -17 -19 4 8 27 32 31 17 33
-20 -20 -20 -20 -20 -20 -20 -20 -20 -20 -20 -20 -20 -20 -20 -20 -20 -20 -20 -20 -20 -20 -20 -20 -20 -20 -20 -20 -20 -18 -20 -10 -20 -20 -14 -16 -20 -20 5 14 29 33 21 -16 -20
-20 -20 -20 -20 -20 -20 -20 -20 -20 -20 -20 -20 -20 -20 -20 -20 -20 -20 -20 -20 -20 -20 -20 -20 -20 -20 -20 -20 -20 -20 -20 9 -19 -20 -20 -19 -20 -20 5 11 12 17 6 3 35
-20 -20 -20 -20 -20 -20 -20 -20 -20 -20 -20 -20 -20 -20 -20 -20 -20 -20 -20 -20 -20 -20 -20 -20 -20 -20 -20 -20 -20 7 26 0 6 -20 -20 -20 -20 -14 -13 -15 -5 -6 15 9 -6
-20 -20 -20 -20 -20 -20 -20 -20 -20 -20 -20 -20 -20 -20 -20 -20 -20 -20 -20 -20 -20 -20 -20 -20 -20 -20 -20 -20 -20 6 12 0 -20 -20 -20 -20 -20 -20 -15 -9 0 13 -2 -7 5
-20 -20 -20 -20 -20 -20 -20 -20 -20 -20 -20 -20 -20 -20 -20 -20 -20 -20 -20 -20 -20 -20 -20 -20 -20 -20 -20 -20 -20 -20 13 -7 -20 -20 -20 -19 -20 -20 -20 -20 -20 -19 -14 -14 8
-20 -20 -20 -20 -20 -20 -20 -20 -20 -20 -20 -20 -20 -20 -20 -20 -20 -20 -20 -20 -20 -20 -20 -20 -20 -20 -20 -20 -20 -20 -20 17 -20 -20 -20 -19 -8 -20 -20 -20 -20 -20 -5 4 5
-20 -20 -20 -20 -20 -20 -20 -20 -20 -20 -20 -20 -20 -20 -20 -20 -20 -20 -20 -20 -20 -20 -20 -20 -20 -20 -20 -20 -20 -20 -17 9 -18 -20 -20 -20 15 -20 -20 -20 -20 -20 -19 -13 8
-20 -20 -20 -20 -20 -20 -20 -20 -20 -20 -20 -20 -20 -20 -20 -20 -20 -20 -20 -20 -20 -20 -20 -20 -20 -12 -20 -10 -20 -20 -18 -19 2 -20 -20 -20 6 -20 -20 -20 -20 -20 -20 -7 10
-20 -20 -20 -20 -20 -20 -20 -20 -20 -20 -20 -20 -20 -20 -20 -20 -20 -20 -20 -20 -20 -20 -20 -20 -20 -20 -20 -20 -20 -20 -20 -6 0 -10 -19 -20 -20 -20 -20 -20 -20 -20 -20 -7 14
-20 -20 -20 -20 -20 -20 -20 -20 -20 -20 -20 -20 -20 -20 -20 -20 -20 -20 -20 -20 -20 -20 -20 -20 -20 -20 -20 12 -9 -20 -20 3 -12 8 -14 -20 -20 -20 -20 -20 -6 -20 -20 -20 -12
-20 -20 -20 -20 -20 -20 -20 -20 -20 -20 -20 -20 -20 -20 -20 -20 -20 -20 -20 -20 -20 -20 -8 -20 -20 -20 -19 -6 -7 -20 -20 12 -17 -4 20 -20 -20 -20 -20 -20 -20 8 -20 -20 11
-20 -20 -20 -20 -20 -20 -20 -20 -20 -20 -20 -20 -20 -20 -20 -20 -20 -20 -20 -20 -20 -20 -20 -20 -20 -20 -13 1 -20 2 -20 -19 -20 -14 6 -5 -19 -20 1 -20 -20 -11 -16 14 15
-20 -20 -20 -20 -20 -20 -20 -20 -20 -20 -20 -20 -20 -20 -20 -20 -20 -20 -20 -20 -20 -20 -20 -20 -20 -20 -20 -20 -10 -12 -20 -20 -20 -20 -5 -15 7 9 10 -18 -20 7 2 2 21
-20 -20 -20 -20 -20 -20 -20 -20 -20 -20 -20 -20 -20 -20 -20 -20 -20 -20 -20 -20 -20 -12 -20 -20 -20 -20 -20 -20 -20 -3 -16 -19 -19 3 13 -6 1 5 17 -17 -8 2 25 16 -0